Saturday, August 18, 2018, 1:52 PM EDT
Back to Local

KWAL, Wallops Flight Fac Airport

Location: Wallops Island, VA, United States Lat: 37.933
Local Time: 1:52 PM EDT (17:52 GMT) Lon: -75.467
Time Zone: US/Eastern Elev: 39 ft

Show me the last for .
Show Coded

Time T Td Feel RH Dir Speed Gust Alt SLP Vis Weather Sky Remarks
2018-08-18 12:54 87 76 97 69 250° 7 16 29.90 29.89 10 SCT022 None
2018-08-18 11:54 86 76 96 72 250° 13 - 29.92 29.90 10 FEW019 None
2018-08-18 10:54 85 76 94 74 250° 10 - 29.93 29.92 10 SCT019 None
2018-08-18 10:30 85 76 94 74 250° 13 20 29.93 - 10 SCT020 None
2018-08-18 09:54 85 76 94 74 270° 12 - 29.93 29.92 10 BKN020 None
2018-08-18 08:54 85 77 95 77 250° 12 18 29.93 29.92 10 FEW021 None
2018-08-18 07:54 83 77 92 82 240° 10 - 29.93 29.92 10 CLR 6-hr Min Temp (8am): 80.1°F
6-hr Max Temp (8am): 82.9°F
2018-08-18 06:54 80 76 87 87 230° 7 - 29.94 29.93 10 CLR None
2018-08-18 05:54 80 76 87 87 220° 8 - 29.94 29.93 10 CLR None
2018-08-18 04:54 81 77 89 87 230° 7 - 29.95 29.93 10 CLR None
2018-08-18 03:54 81 77 89 87 220° 7 - 29.96 29.95 10 CLR None
2018-08-18 02:54 81 77 89 87 210° 7 - 29.96 29.96 10 CLR None
2018-08-18 01:54 83 78 93 85 230° 10 - 29.98 29.97 10 CLR 6-hr Min Temp (2am): 81.0°F
6-hr Max Temp (2am): 82.9°F
2018-08-18 00:54 82 78 92 87 220° 9 - 29.99 29.98 9 CLR 24-hr Min Temp (1am): 77.0°F
24-hr Max Temp (1am): 90.0°F
2018-08-17 23:54 82 79 93 90 200° 8 - 29.98 29.97 10 CLR None
2018-08-17 22:54 81 79 91 93 200° 7 - 29.99 29.98 10 CLR None
2018-08-17 21:54 82 79 93 90 200° 9 - 30.00 29.99 10 CLR None
2018-08-17 20:54 82 79 93 90 200° 12 - 30.00 29.99 10 CLR None
2018-08-17 19:54 83 80 95 91 190° 15 - 30.00 29.99 10 CLR 6-hr Min Temp (8pm): 82.9°F
6-hr Max Temp (8pm): 90.0°F
2018-08-17 17:54 86 78 98 77 190° 14 - 30.01 30.00 10 CLR None
2018-08-17 16:54 88 76 99 67 180° 14 - 30.03 30.02 10 CLR None
2018-08-17 15:54 88 78 101 72 190° 17 - 30.04 30.03 9 CLR None
2018-08-17 14:54 88 79 102 74 180° 15 - 30.05 30.04 9 CLR None
2018-08-17 13:54 89 80 105 74 190° 14 - 30.07 30.06 9 CLR 6-hr Min Temp (2pm): 81.0°F
6-hr Max Temp (2pm): 90.0°F

Support USWX by starting your Amazon purchase here.